RH
62 61 70 68 66 61 62 60 62 50 47 47 56 69 73 76 76 70 69 64 22 8 6 6 6 7 7 6 5 5 4 3 3 3 3 4 4 3 2 3 3 3 3
74 73 70 66 65 67 68 68 55 46 44 39 51 66 67 70 78 72 74 56 10 7 7 8 9 9 8 6 6 7 10 12 10 6 4 5 6 5 4 4 4 5 6
92 86 82 70 70 72 78 65 63 59 48 45 42 47 56 68 82 77 77 44 7 7 8 9 10 10 8 7 6 7 8 7 8 9 11 14 11 8 7 6 7 8 12
89 90 87 82 78 76 72 75 71 54 49 56 69 93 80 69 89 84 74 41 8 7 9 12 12 9 8 7 6 7 8 8 9 10 17 11 9 13 12 10 9 10 14
68 74 82 71 73 72 84 86 58 44 51 55 65 93 78 72 91 92 87 71 23 8 9 14 18 9 7 7 8 8 9 10 25 30 32 26 20 24 26 19 15 13 11
62 68 56 62 74 89 94 82 49 53 52 49 65 76 79 70 91 96 87 77 34 14 13 28 24 8 6 7 18 15 11 19 25 29 28 30 32 36 33 31 27 22 19
66 83 80 86 89 89 78 77 82 84 69 64 75 100 90 84 94 93 87 57 20 8 26 22 9 9 8 29 22 17 28 36 36 32 31 35 37 36 36 33 31 30 28
91 96 86 88 78 82 81 93 94 92 85 86 86 98 92 96 94 93 85 70 45 28 20 14 14 16 24 25 22 27 35 41 43 34 21 29 37 28 18 24 28 28 22
77 95 95 95 89 97 89 97 90 92 95 97 93 100 99 97 95 88 49 24 14 18 29 27 20 21 31 25 24 37 38 36 33 20 9 10 8 7 7 8 8 9 8
76 83 89 85 95 93 95 94 81 90 97 95 94 97 97 96 94 80 66 47 39 34 20 18 33 34 28 32 36 26 20 14 11 8 8 8 11 12 13 13 13 13 13
58 49 46 75 88 86 96 92 99 100 96 96 96 96 97 92 78 55 19 12 13 16 32 42 38 34 44 41 28 14 10 10 9 9 9 10 14 14 13 13 12 12 13
64 48 45 54 74 97 87 96 71 83 96 97 96 96 95 87 56 37 22 29 42 51 52 43 40 54 48 55 20 12 12 11 9 10 13 15 15 14 14 14 14 14 13
69 59 51 96 98 98 97 83 97 96 97 98 97 95 81 65 59 67 72 71 62 59 57 63 62 60 52 49 13 13 12 12 13 15 16 15 14 15 14 13 15 15 14
62 62 53 61 69 84 99 98 97 96 97 97 96 78 85 94 92 88 84 76 80 80 69 44 34 44 25 13 12 10 13 15 15 16 16 15 13 12 14 13 15 16 15
60 58 56 73 96 98 96 96 96 96 97 96 90 90 89 80 82 89 93 90 74 46 42 18 15 13 12 12 12 14 16 17 17 16 15 15 13 11 12 13 16 17 17
96 90 74 96 96 97 97 97 97 95 92 80 74 71 84 98 92 78 85 62 38 25 14 12 12 13 15 14 15 16 18 17 15 14 14 16 15 15 15 17 19 18 19
81 92 94 84 82 85 86 92 95 93 93 93 96 98 97 78 34 38 46 27 16 14 14 13 14 15 14 15 17 17 16 14 14 15 17 19 19 20 20 22 22 22 24
79 79 80 86 89 81 83 90 92 95 92 91 83 95 86 81 82 61 33 14 15 16 15 14 14 15 17 16 13 14 14 16 18 20 23 25 27 28 26 24 26 29 30
67 64 66 67 64 60 70 66 66 67 61 51 69 96 77 63 51 18 15 17 18 16 14 15 17 17 13 13 14 13 16 20 24 28 31 35 38 31 34 48 50 52 52
53 51 44 32 52 70 74 70 43 44 44 52 84 78 42 20 18 18 20 20 17 15 16 17 14 15 14 14 14 16 22 29 31 31 42 46 39 35 33 34 36 42 50
43 43 36 24 23 27 30 27 36 45 54 62 98 87 48 26 23 22 20 16 16 17 15 16 24 19 15 14 19 30 34 34 38 46 50 38 37 37 41 42 45 45 45
45 36 28 24 26 30 44 48 47 67 56 54 94 48 78 40 26 31 20 17 17 16 21 30 34 24 17 22 35 38 48 62 67 59 47 48 44 48 50 56 54 52 53
24 27 26 26 31 46 66 72 70 71 55 48 75 94 75 48 60 45 31 36 34 35 29 41 49 31 34 42 61 63 54 71 92 75 70 70 62 66 66 70 74 73 75
19 20 20 18 23 59 69 64 73 44 37 58 79 83 87 81 61 50 46 51 56 48 41 53 53 56 67 65 67 89 78 80 55 44 57 70 74 75 73 77 84 85 86
28 20 19 15 20 39 58 71 66 46 39 53 89 91 77 80 83 78 61 65 71 53 39 88 94 68 84 95 100 79 65 52 57 69 75 72 71 77 79 77 70 57 35
36 30 26 20 52 59 70 80 74 48 22 27 48 80 90 88 83 76 82 84 81 69 60 83 99 100 100 100 98 95 71 76 80 82 73 81 78 76 66 59 38 13 4
Wind_Speed
33 32 31 29 26 26 25 25 24 25 24 20 19 18 15 16 16 11 12 9 7 9 10 11 12 12 11 10 12 13 13 12 13 14 14 13 14 14 13 12 11 9 10
35 31 30 28 29 27 25 26 27 27 25 22 20 19 21 19 16 11 9 8 7 10 12 12 12 13 13 11 12 13 14 14 14 15 15 14 15 15 14 14 14 11 10
23 24 27 27 31 30 29 28 26 24 25 23 20 21 22 19 15 13 12 8 10 13 14 13 14 14 13 13 14 15 16 16 17 18 18 17 18 18 17 16 16 16 15
26 26 25 25 28 30 30 31 27 23 24 24 19 21 22 21 16 14 12 9 14 15 15 14 14 14 14 15 16 17 19 21 22 22 21 19 19 21 22 23 23 22 20
29 30 30 31 34 34 33 31 30 31 33 28 26 25 26 20 18 17 15 13 15 17 18 16 16 17 17 18 18 19 21 24 22 22 20 19 17 17 19 22 25 28 29
31 32 35 36 35 33 32 27 32 37 33 27 31 27 26 23 22 23 19 14 16 18 18 19 19 18 18 20 19 22 26 25 24 21 21 21 21 20 20 21 24 25 28
32 29 28 31 31 32 32 29 32 34 31 29 28 29 29 26 26 28 21 16 19 19 20 20 19 17 18 22 24 25 22 20 18 21 21 21 20 22 23 23 24 25 27
32 27 31 31 33 33 33 30 28 26 20 24 26 33 34 33 31 25 15 15 18 19 21 17 18 19 21 23 26 26 24 22 22 22 23 24 24 24 25 27 29 30 31
32 32 33 35 37 35 33 35 33 26 32 26 30 37 39 37 36 28 15 16 15 16 17 17 20 19 22 24 25 22 21 22 22 23 19 19 21 23 23 23 24 27 29
31 31 34 36 35 33 54 37 40 32 41 32 29 39 37 25 22 17 16 17 16 15 16 16 18 21 23 25 23 23 22 20 15 18 21 22 25 28 29 30 31 32 33
29 31 32 26 37 41 41 47 57 44 44 35 36 37 22 14 14 15 12 11 12 13 13 15 21 23 23 21 21 20 19 20 23 25 28 31 32 32 33 33 34 35 36
33 32 30 31 18 31 35 38 42 57 42 44 44 35 19 16 16 11 8 7 8 11 14 20 22 25 22 22 21 18 20 25 29 32 34 34 33 35 36 37 39 41 42
31 30 20 27 31 30 32 41 42 37 34 37 36 16 16 16 13 9 7 9 12 16 20 22 25 21 25 24 19 21 24 29 32 34 34 36 39 39 39 40 39 42 44
29 31 31 32 31 33 37 36 30 28 31 29 23 21 19 15 11 8 11 13 17 18 18 16 21 22 20 17 23 27 29 32 35 36 38 40 43 43 43 43 43 42 44
20 24 24 24 22 19 21 27 30 30 31 18 14 11 11 10 12 14 12 14 15 17 18 16 14 15 19 23 27 30 34 37 39 41 42 43 44 45 45 45 44 42 43
10 15 15 22 25 28 24 25 21 21 17 12 14 16 14 12 10 13 12 16 14 14 12 15 17 21 24 28 31 34 37 42 44 45 46 45 45 46 46 47 45 43 44
13 18 19 22 20 19 18 16 14 15 14 14 13 12 11 8 12 15 11 11 12 12 16 20 23 26 29 32 35 38 41 44 45 46 46 47 47 48 47 45 45 45 45
19 20 19 18 17 15 13 10 8 5 7 9 9 8 8 10 11 12 11 11 13 17 22 25 28 31 33 37 40 41 43 45 46 47 47 46 46 46 47 47 44 45 46
12 11 13 13 12 11 11 11 9 11 12 11 11 11 10 12 13 10 11 15 18 23 26 29 32 35 38 41 42 43 44 47 48 49 47 47 49 49 49 48 50 49 48
13 10 9 8 10 13 13 10 10 9 10 11 12 10 10 10 10 12 15 20 24 27 31 33 36 39 42 44 44 45 47 48 48 46 46 49 51 52 52 54 55 56 55
12 10 9 9 9 9 9 10 9 11 11 12 11 9 11 13 12 15 20 25 29 32 35 36 39 42 45 43 44 48 46 44 46 49 51 52 54 53 53 54 55 57 59
11 11 12 11 10 8 9 10 11 12 12 12 11 13 14 16 17 21 26 29 31 35 40 38 42 44 44 45 47 51 51 50 52 54 54 56 57 57 57 58 59 59 61
13 14 12 9 8 9 10 12 13 13 13 13 16 17 19 21 25 28 32 35 37 41 44 41 45 46 50 49 50 54 54 54 61 61 61 64 62 61 61 61 63 64 66
13 13 12 12 12 13 15 15 15 12 13 16 19 20 24 29 31 31 36 37 40 44 43 44 46 49 49 51 53 64 57 59 63 63 63 62 62 63 65 67 69 71 72
16 16 14 14 13 14 15 16 15 14 15 18 22 22 24 30 34 35 41 40 44 44 45 45 47 46 52 53 55 59 64 63 65 62 62 65 67 69 72 76 78 79 80
17 18 18 18 16 17 17 18 18 17 19 21 23 25 29 31 33 38 42 41 46 45 46 47 47 52 62 61 62 67 68 67 63 65 68 70 74 77 80 81 82 84 85
Wind_Direction
244 248 251 260 266 267 266 263 272 277 281 282 287 285 303 307 317 318 333 310 272 270 272 282 288 292 301 310 305 304 301 297 298 295 295 306 315 316 307 299 297 300 298
249 245 248 255 257 259 263 261 272 274 276 283 277 282 287 297 310 306 304 294 250 254 261 268 278 286 296 307 311 314 314 315 309 303 302 300 302 303 302 296 290 286 292
244 242 245 242 252 256 258 264 274 279 273 277 278 273 282 291 294 296 280 262 239 238 250 256 272 287 298 307 309 315 318 322 325 322 317 309 298 291 291 285 279 282 288
248 243 240 242 243 248 256 265 272 276 276 272 273 270 272 284 277 286 276 248 230 234 245 257 272 281 294 298 306 313 316 324 322 317 316 308 303 299 291 287 284 281 285
250 248 242 243 244 251 260 270 267 278 278 277 269 258 272 279 272 272 269 252 230 236 243 258 271 278 288 294 305 314 319 320 320 320 312 305 298 293 293 291 289 288 287
254 254 247 246 250 258 267 269 268 271 276 273 272 256 268 272 268 265 267 242 223 239 248 257 267 275 283 294 305 315 316 320 320 314 311 303 300 293 296 293 289 289 287
252 254 256 257 258 259 262 264 270 279 275 264 257 253 268 276 266 254 262 228 226 236 246 259 268 281 293 298 306 311 308 302 307 309 303 302 297 298 295 296 294 291 289
259 260 261 260 257 258 252 259 264 274 261 263 258 253 275 278 266 245 234 226 230 234 249 267 273 285 287 302 308 309 302 301 302 300 304 299 295 301 301 298 295 294 294
256 260 265 262 254 243 243 245 258 263 255 265 253 250 267 268 261 244 216 221 231 241 252 260 272 280 293 302 298 300 300 304 304 303 309 308 309 309 308 304 300 301 301
252 262 274 280 234 273 241 252 255 258 264 249 260 253 254 240 220 201 209 223 235 245 255 271 279 292 296 289 299 305 302 305 307 307 309 309 309 308 306 304 303 302 299
261 260 263 248 266 287 226 261 240 236 275 254 254 248 225 166 189 208 218 232 236 251 266 282 286 290 290 294 311 306 306 308 308 312 311 309 309 308 305 304 303 302 300
261 257 269 282 295 253 253 250 273 264 242 269 247 235 160 172 192 199 219 238 260 274 269 275 278 282 279 300 304 299 306 311 311 312 310 309 309 306 305 305 304 303 302
251 245 249 237 237 253 238 264 269 250 255 249 246 209 162 186 185 180 229 246 255 262 270 278 280 277 286 294 295 298 309 309 309 305 304 305 303 302 302 303 302 300 297
236 243 247 249 255 246 250 250 228 244 233 229 193 170 182 198 197 201 233 249 262 268 275 286 284 280 285 291 301 305 305 300 298 301 301 300 298 299 300 299 299 296 294
240 240 240 244 226 238 262 231 228 221 216 197 149 148 172 197 223 233 241 255 270 275 279 282 284 291 298 298 299 300 298 298 300 299 297 296 298 298 296 295 293 290 288
237 234 237 226 223 238 240 219 170 141 134 141 159 187 204 220 240 266 252 263 274 284 288 292 294 297 298 298 298 297 299 298 299 298 297 298 297 295 294 294 292 290 288
108 102 115 120 125 107 93 96 106 130 151 169 189 198 198 237 255 254 265 281 272 281 288 292 295 295 298 300 298 296 296 295 296 297 298 298 297 296 295 294 293 290 287
107 102 99 98 98 102 108 114 121 139 168 192 213 215 243 261 269 267 263 277 286 293 294 296 297 300 300 296 297 296 295 299 300 298 298 297 297 296 293 292 290 290 288
111 124 114 115 130 142 154 165 180 202 212 209 221 231 246 249 246 261 276 284 291 294 295 296 298 301 300 299 296 298 301 303 302 301 297 299 301 299 295 290 288 289 289
143 140 141 145 168 177 185 200 216 221 233 230 230 234 241 235 253 271 287 291 293 293 295 298 302 303 302 301 301 303 302 302 301 300 301 304 304 302 299 297 294 294 294
157 163 176 172 174 186 203 225 238 249 250 244 233 226 240 257 272 287 288 289 291 296 297 299 307 306 301 301 303 302 300 307 306 303 304 306 303 302 298 296 295 293 291
185 192 193 196 198 213 231 238 238 243 250 246 240 236 246 264 274 279 285 288 295 304 309 302 303 305 303 301 309 308 301 299 305 310 305 306 305 303 300 298 297 296 294
199 197 204 211 231 236 237 244 242 251 249 239 245 253 258 273 274 283 290 294 299 304 307 301 304 305 309 303 304 317 305 299 304 307 306 308 307 304 302 301 299 298 297
226 225 224 226 233 237 240 248 249 250 262 257 257 266 273 274 286 288 300 301 300 307 306 304 307 307 308 308 307 312 309 303 304 306 305 303 303 302 303 303 302 301 298
248 250 249 248 247 245 246 248 255 261 270 273 278 280 287 285 282 290 302 300 301 305 308 297 303 310 312 305 303 309 307 309 307 306 304 304 306 306 304 303 301 299 298
252 259 261 260 267 260 254 244 248 262 269 278 285 288 291 293 287 293 301 301 302 304 313 298 300 306 310 305 303 307 309 308 308 306 307 307 305 304 305 304 304 305 303